TimeEDT,TemperatureF,Dew PointF,Humidity,Sea Level PressureIn,VisibilityMPH,Wind Direction,Wind SpeedMPH,Gust SpeedMPH,PrecipitationIn,Events,Conditions,WindDirDegrees,DateUTC
12:15 AM,54.1,40.1,59,29.88,10.0,NW,9.2,-,N/A,,Scattered Clouds,310,2012-10-16 04:15:00
12:35 AM,53.6,40.3,61,29.88,10.0,WNW,5.8,-,N/A,,Mostly Cloudy,300,2012-10-16 04:35:00
12:55 AM,53.8,40.5,61,29.88,10.0,WNW,5.8,-,N/A,,Mostly Cloudy,290,2012-10-16 04:55:00
1:15 AM,53.8,40.8,62,29.89,10.0,WNW,4.6,-,N/A,,Mostly Cloudy,290,2012-10-16 05:15:00
1:35 AM,53.2,41.0,63,29.89,10.0,WNW,3.5,-,N/A,,Overcast,290,2012-10-16 05:35:00
1:55 AM,53.1,41.7,65,29.89,10.0,WNW,3.5,-,N/A,,Overcast,290,2012-10-16 05:55:00
2:15 AM,53.6,41.5,64,29.90,10.0,WNW,3.5,-,N/A,,Overcast,290,2012-10-16 06:15:00
2:35 AM,52.9,42.3,67,29.90,10.0,Calm,Calm,-,N/A,,Overcast,0,2012-10-16 06:35:00
2:55 AM,52.7,42.3,68,29.91,10.0,Calm,Calm,-,N/A,,Overcast,0,2012-10-16 06:55:00
3:15 AM,52.7,42.8,69,29.91,10.0,Calm,Calm,-,N/A,,Overcast,0,2012-10-16 07:15:00
3:35 AM,52.3,43.0,70,29.91,10.0,Calm,Calm,-,N/A,,Overcast,0,2012-10-16 07:35:00
3:55 AM,52.2,43.2,71,29.91,10.0,Calm,Calm,-,N/A,,Overcast,0,2012-10-16 07:55:00
4:15 AM,50.7,43.7,77,29.91,10.0,Calm,Calm,-,N/A,,Overcast,0,2012-10-16 08:15:00
4:35 AM,50.7,43.9,77,29.91,10.0,Calm,Calm,-,N/A,,Overcast,0,2012-10-16 08:35:00
4:55 AM,50.7,43.2,75,29.91,10.0,Calm,Calm,-,N/A,,Overcast,0,2012-10-16 08:55:00
5:15 AM,50.0,43.0,77,29.91,10.0,Calm,Calm,-,N/A,,Mostly Cloudy,0,2012-10-16 09:15:00
5:35 AM,46.6,41.5,83,29.92,10.0,WNW,3.5,-,N/A,,Clear,300,2012-10-16 09:35:00
5:55 AM,46.2,41.2,83,29.92,10.0,NNW,3.5,-,N/A,,Scattered Clouds,330,2012-10-16 09:55:00
6:35 AM,45.7,41.2,84,29.93,10.0,Calm,Calm,-,N/A,,Clear,0,2012-10-16 10:35:00
6:55 AM,43.5,39.6,86,29.93,10.0,Calm,Calm,-,N/A,,Clear,0,2012-10-16 10:55:00
7:15 AM,42.4,39.4,89,29.93,10.0,Calm,Calm,-,N/A,,Clear,0,2012-10-16 11:15:00
7:35 AM,41.9,38.3,87,29.93,10.0,Calm,Calm,-,N/A,,Clear,0,2012-10-16 11:35:00
8:15 AM,45.0,40.3,84,29.94,10.0,Calm,Calm,-,N/A,,Clear,0,2012-10-16 12:15:00
8:35 AM,47.1,42.6,84,29.95,10.0,Calm,Calm,-,N/A,,Clear,0,2012-10-16 12:35:00
8:55 AM,51.3,41.5,69,29.95,10.0,Calm,Calm,-,N/A,,Unknown,0,2012-10-16 12:55:00
9:15 AM,53.6,39.6,59,29.95,10.0,WNW,3.5,-,N/A,,Clear,300,2012-10-16 13:15:00
9:35 AM,55.4,36.9,50,29.96,10.0,Calm,Calm,-,N/A,,Clear,0,2012-10-16 13:35:00
9:55 AM,55.6,36.5,49,29.96,10.0,Calm,Calm,-,N/A,,Clear,0,2012-10-16 13:55:00
10:15 AM,57.4,36.9,46,29.96,10.0,NW,3.5,-,N/A,,Clear,310,2012-10-16 14:15:00
10:35 AM,58.1,37.8,47,29.96,10.0,North,3.5,-,N/A,,Clear,10,2012-10-16 14:35:00
10:55 AM,58.1,37.2,46,29.96,10.0,Calm,Calm,-,N/A,,Clear,0,2012-10-16 14:55:00
11:15 AM,59.0,36.7,43,29.95,10.0,NE,3.5,-,N/A,,Clear,40,2012-10-16 15:15:00
11:35 AM,59.5,36.1,42,29.95,10.0,East,5.8,-,N/A,,Clear,90,2012-10-16 15:35:00
11:55 AM,60.4,35.4,39,29.96,10.0,NW,5.8,-,N/A,,Clear,310,2012-10-16 15:55:00
12:15 PM,61.3,35.8,39,29.96,10.0,Calm,Calm,-,N/A,,Clear,0,2012-10-16 16:15:00
12:35 PM,62.1,36.3,38,29.95,10.0,North,3.5,-,N/A,,Clear,10,2012-10-16 16:35:00
12:55 PM,61.9,36.0,38,29.94,10.0,East,3.5,-,N/A,,Clear,100,2012-10-16 16:55:00
1:15 PM,63.0,35.1,35,29.93,10.0,Calm,Calm,-,N/A,,Clear,0,2012-10-16 17:15:00
1:35 PM,63.3,35.6,36,29.92,10.0,Calm,Calm,-,N/A,,Clear,0,2012-10-16 17:35:00
1:55 PM,64.2,36.9,36,29.91,10.0,Calm,Calm,-,N/A,,Clear,0,2012-10-16 17:55:00
2:15 PM,64.6,35.8,34,29.90,10.0,Calm,Calm,-,N/A,,Clear,0,2012-10-16 18:15:00
2:35 PM,65.1,36.0,34,29.89,10.0,ENE,4.6,-,N/A,,Clear,70,2012-10-16 18:35:00
2:55 PM,66.2,36.3,33,29.88,10.0,Calm,Calm,-,N/A,,Clear,0,2012-10-16 18:55:00
3:15 PM,65.7,36.7,34,29.88,10.0,SE,4.6,-,N/A,,Clear,130,2012-10-16 19:15:00
3:35 PM,65.8,37.0,35,29.89,5.0,SE,6.9,-,N/A,,Haze,130,2012-10-16 19:35:00
3:55 PM,65.8,36.1,33,29.88,10.0,Calm,Calm,-,N/A,,Clear,0,2012-10-16 19:55:00
4:15 PM,65.8,37.0,35,29.89,10.0,ESE,5.8,-,N/A,,Clear,110,2012-10-16 20:15:00
4:35 PM,65.8,36.1,33,29.88,10.0,Calm,Calm,-,N/A,,Clear,0,2012-10-16 20:35:00
4:55 PM,65.8,36.0,33,29.88,10.0,Calm,Calm,-,N/A,,Clear,0,2012-10-16 20:55:00
5:15 PM,65.5,36.1,34,29.88,10.0,Calm,Calm,-,N/A,,Clear,0,2012-10-16 21:15:00
5:35 PM,65.3,37.2,35,29.88,10.0,Calm,Calm,-,N/A,,Clear,0,2012-10-16 21:35:00
5:55 PM,64.6,35.6,34,29.88,10.0,Calm,Calm,-,N/A,,Clear,0,2012-10-16 21:55:00
6:15 PM,63.5,37.4,38,29.89,10.0,Calm,Calm,-,N/A,,Clear,0,2012-10-16 22:15:00
6:35 PM,61.5,38.8,43,29.89,10.0,Calm,Calm,-,N/A,,Clear,0,2012-10-16 22:35:00
6:55 PM,58.3,40.1,51,29.90,10.0,Calm,Calm,-,N/A,,Clear,0,2012-10-16 22:55:00
7:15 PM,58.3,39.4,49,29.90,10.0,Calm,Calm,-,N/A,,Clear,0,2012-10-16 23:15:00
7:35 PM,53.2,41.0,63,29.90,10.0,Calm,Calm,-,N/A,,Clear,0,2012-10-16 23:35:00
7:55 PM,52.3,40.6,64,29.91,10.0,Calm,Calm,-,N/A,,Clear,0,2012-10-16 23:55:00
8:15 PM,52.0,40.3,64,29.91,10.0,Calm,Calm,-,N/A,,Clear,0,2012-10-17 00:15:00
8:35 PM,50.2,40.5,69,29.92,10.0,Calm,Calm,-,N/A,,Clear,0,2012-10-17 00:35:00
8:55 PM,49.8,40.3,70,29.92,10.0,Calm,Calm,-,N/A,,Clear,0,2012-10-17 00:55:00
9:15 PM,52.3,40.8,65,29.92,10.0,Calm,Calm,-,N/A,,Clear,0,2012-10-17 01:15:00
9:35 PM,47.8,39.9,74,29.93,10.0,Calm,Calm,-,N/A,,Clear,0,2012-10-17 01:35:00
9:55 PM,46.0,39.0,76,29.93,10.0,Calm,Calm,-,N/A,,Clear,0,2012-10-17 01:55:00
10:15 PM,45.1,39.2,80,29.93,10.0,Calm,Calm,-,N/A,,Clear,0,2012-10-17 02:15:00
10:35 PM,45.1,38.8,79,29.93,10.0,Calm,Calm,-,N/A,,Clear,0,2012-10-17 02:35:00
10:55 PM,44.8,39.6,82,29.93,10.0,Calm,Calm,-,N/A,,Clear,0,2012-10-17 02:55:00
11:35 PM,45.0,39.2,80,29.95,10.0,Calm,Calm,-,N/A,,Clear,0,2012-10-17 03:35:00
11:55 PM,45.0,39.2,80,29.96,10.0,Calm,Calm,-,N/A,,Clear,0,2012-10-17 03:55:00